Time,TemperatureF,DewpointF,PressureIn,WindDirection,WindDirectionDegrees,WindSpeedMPH,WindSpeedGustMPH,Humidity,HourlyPrecipIn,Conditions,Clouds,dailyrainin,SoftwareType,DateUTC
2015-01-26 00:22:00,4.0,4.0,-100.00,SSE,155,2.0,4.0,100,-99.99,,,-99.99,,2015-01-26 06:22:00,
2015-01-26 00:32:00,4.0,4.0,-100.00,SSE,155,2.0,4.0,100,-99.99,,,-99.99,,2015-01-26 06:32:00,
2015-01-26 00:42:00,4.0,4.0,-100.00,SSE,155,2.0,4.0,100,-99.99,,,-99.99,,2015-01-26 06:42:00,
2015-01-26 00:52:00,4.0,4.0,-100.00,SSE,155,2.0,4.0,100,-99.99,,,-99.99,,2015-01-26 06:52:00,
2015-01-26 01:02:00,4.0,4.0,-100.00,SSE,155,2.0,4.0,100,-99.99,,,-99.99,,2015-01-26 07:02:00,
2015-01-26 01:22:00,6.0,6.0,-100.00,South,175,3.0,8.0,99,-99.99,,,-99.99,,2015-01-26 07:22:00,
2015-01-26 01:32:00,6.0,6.0,-100.00,South,175,3.0,8.0,99,-99.99,,,-99.99,,2015-01-26 07:32:00,
2015-01-26 01:43:00,6.0,6.0,-100.00,South,175,3.0,8.0,99,-99.99,,,-99.99,,2015-01-26 07:43:00,
2015-01-26 01:52:00,6.0,6.0,-100.00,South,175,3.0,8.0,99,-99.99,,,-99.99,,2015-01-26 07:52:00,
2015-01-26 02:02:00,6.0,6.0,-100.00,South,175,3.0,8.0,99,-99.99,,,-99.99,,2015-01-26 08:02:00,
2015-01-26 02:23:00,6.0,6.0,-100.00,SSE,155,1.0,3.0,99,-99.99,,,-99.99,,2015-01-26 08:23:00,
2015-01-26 02:32:00,6.0,6.0,-100.00,SSE,155,1.0,3.0,99,-99.99,,,-99.99,,2015-01-26 08:32:00,
2015-01-26 02:43:00,6.0,6.0,-100.00,SSE,155,1.0,3.0,99,-99.99,,,-99.99,,2015-01-26 08:43:00,
2015-01-26 02:52:00,6.0,6.0,-100.00,SSE,155,1.0,3.0,99,-99.99,,,-99.99,,2015-01-26 08:52:00,
2015-01-26 03:03:00,8.0,8.0,-100.00,SSE,155,2.0,4.0,100,-99.99,,,-99.99,,2015-01-26 09:03:00,
2015-01-26 03:23:00,8.0,8.0,-100.00,SSE,155,2.0,4.0,100,-99.99,,,-99.99,,2015-01-26 09:23:00,
2015-01-26 03:33:00,8.0,8.0,-100.00,SSE,155,2.0,4.0,100,-99.99,,,-99.99,,2015-01-26 09:33:00,
2015-01-26 03:43:00,8.0,8.0,-100.00,SSE,155,2.0,4.0,100,-99.99,,,-99.99,,2015-01-26 09:43:00,
2015-01-26 03:54:00,8.0,8.0,-100.00,SSE,155,2.0,4.0,100,-99.99,,,-99.99,,2015-01-26 09:54:00,
2015-01-26 04:03:00,9.0,9.0,-100.00,SSE,150,2.0,4.0,99,-99.99,,,-99.99,,2015-01-26 10:03:00,
2015-01-26 04:24:00,9.0,9.0,-100.00,SSE,150,2.0,4.0,99,-99.99,,,-99.99,,2015-01-26 10:24:00,
2015-01-26 04:34:00,9.0,9.0,-100.00,SSE,150,2.0,4.0,99,-99.99,,,-99.99,,2015-01-26 10:34:00,
2015-01-26 04:44:00,9.0,9.0,-100.00,SSE,150,2.0,4.0,99,-99.99,,,-99.99,,2015-01-26 10:44:00,
2015-01-26 04:54:00,9.0,9.0,-100.00,SSE,150,2.0,4.0,99,-99.99,,,-99.99,,2015-01-26 10:54:00,
2015-01-26 05:02:00,11.0,10.0,-100.00,South,175,2.0,6.0,99,-99.99,,,-99.99,,2015-01-26 11:02:00,
2015-01-26 05:23:00,11.0,10.0,-100.00,South,175,2.0,6.0,99,-99.99,,,-99.99,,2015-01-26 11:23:00,
2015-01-26 05:33:00,11.0,10.0,-100.00,South,175,2.0,6.0,99,-99.99,,,-99.99,,2015-01-26 11:33:00,
2015-01-26 05:43:00,11.0,10.0,-100.00,South,175,2.0,6.0,99,-99.99,,,-99.99,,2015-01-26 11:43:00,
2015-01-26 05:52:00,11.0,10.0,-100.00,South,175,2.0,6.0,99,-99.99,,,-99.99,,2015-01-26 11:52:00,
2015-01-26 06:02:00,12.0,12.0,-100.00,South,175,2.0,6.0,99,-99.99,,,-99.99,,2015-01-26 12:02:00,
2015-01-26 06:22:00,12.0,12.0,-100.00,South,175,2.0,6.0,99,-99.99,,,-99.99,,2015-01-26 12:22:00,
2015-01-26 06:33:00,12.0,12.0,-100.00,South,175,2.0,6.0,99,-99.99,,,-99.99,,2015-01-26 12:33:00,
2015-01-26 06:42:00,12.0,12.0,-100.00,South,175,2.0,6.0,99,-99.99,,,-99.99,,2015-01-26 12:42:00,
2015-01-26 06:53:00,12.0,12.0,-100.00,South,175,2.0,6.0,99,-99.99,,,-99.99,,2015-01-26 12:53:00,
2015-01-26 07:23:00,12.0,12.0,-100.00,South,175,2.0,7.0,99,-99.99,,,-99.99,,2015-01-26 13:23:00,
2015-01-26 07:33:00,12.0,12.0,-100.00,South,175,2.0,7.0,99,-99.99,,,-99.99,,2015-01-26 13:33:00,
2015-01-26 07:42:00,12.0,12.0,-100.00,South,175,2.0,7.0,99,-99.99,,,-99.99,,2015-01-26 13:42:00,
2015-01-26 07:52:00,12.0,12.0,-100.00,South,175,2.0,7.0,99,-99.99,,,-99.99,,2015-01-26 13:52:00,
2015-01-26 08:02:00,12.0,12.0,-100.00,South,175,2.0,7.0,99,-99.99,,,-99.99,,2015-01-26 14:02:00,
2015-01-26 08:22:00,13.0,13.0,-100.00,SSE,160,4.0,8.0,99,-99.99,,,-99.99,,2015-01-26 14:22:00,
2015-01-26 08:33:00,13.0,13.0,-100.00,SSE,160,4.0,8.0,99,-99.99,,,-99.99,,2015-01-26 14:33:00,
2015-01-26 08:43:00,13.0,13.0,-100.00,SSE,160,4.0,8.0,99,-99.99,,,-99.99,,2015-01-26 14:43:00,
2015-01-26 08:52:00,13.0,13.0,-100.00,SSE,160,4.0,8.0,99,-99.99,,,-99.99,,2015-01-26 14:52:00,
2015-01-26 09:02:00,13.0,13.0,-100.00,SSE,160,4.0,8.0,99,-99.99,,,-99.99,,2015-01-26 15:02:00,
2015-01-26 09:03:00,15.0,15.0,-100.00,South,170,4.0,12.0,99,-99.99,,,-99.99,,2015-01-26 15:03:00,
2015-01-26 09:22:00,15.0,15.0,-100.00,South,170,4.0,12.0,99,-99.99,,,-99.99,,2015-01-26 15:22:00,
2015-01-26 09:33:00,15.0,15.0,-100.00,South,170,4.0,12.0,99,-99.99,,,-99.99,,2015-01-26 15:33:00,
2015-01-26 09:44:00,15.0,15.0,-100.00,South,170,4.0,12.0,99,-99.99,,,-99.99,,2015-01-26 15:44:00,
2015-01-26 09:54:00,15.0,15.0,-100.00,South,170,4.0,12.0,99,-99.99,,,-99.99,,2015-01-26 15:54:00,
2015-01-26 10:03:00,15.0,15.0,-100.00,SSE,165,3.0,9.0,99,-99.99,,,-99.99,,2015-01-26 16:03:00,
2015-01-26 10:24:00,15.0,15.0,-100.00,SSE,165,3.0,9.0,99,-99.99,,,-99.99,,2015-01-26 16:24:00,
2015-01-26 10:34:00,15.0,15.0,-100.00,SSE,165,3.0,9.0,99,-99.99,,,-99.99,,2015-01-26 16:34:00,
2015-01-26 10:45:00,15.0,15.0,-100.00,SSE,165,3.0,9.0,99,-99.99,,,-99.99,,2015-01-26 16:45:00,
2015-01-26 10:55:00,15.0,15.0,-100.00,SSE,165,3.0,9.0,99,-99.99,,,-99.99,,2015-01-26 16:55:00,
2015-01-26 11:03:00,16.0,16.0,-100.00,SSE,165,6.0,11.0,99,-99.99,,,-99.99,,2015-01-26 17:03:00,
2015-01-26 11:23:00,16.0,16.0,-100.00,SSE,165,6.0,11.0,99,-99.99,,,-99.99,,2015-01-26 17:23:00,
2015-01-26 11:33:00,16.0,16.0,-100.00,SSE,165,6.0,11.0,99,-99.99,,,-99.99,,2015-01-26 17:33:00,
2015-01-26 11:43:00,16.0,16.0,-100.00,SSE,165,6.0,11.0,99,-99.99,,,-99.99,,2015-01-26 17:43:00,
2015-01-26 11:52:00,16.0,16.0,-100.00,SSE,165,6.0,11.0,99,-99.99,,,-99.99,,2015-01-26 17:52:00,
2015-01-26 12:03:00,17.0,17.0,-100.00,SSE,165,6.0,11.0,99,-99.99,,,-99.99,,2015-01-26 18:03:00,
2015-01-26 12:23:00,17.0,17.0,-100.00,SSE,165,6.0,11.0,99,-99.99,,,-99.99,,2015-01-26 18:23:00,
2015-01-26 12:32:00,17.0,17.0,-100.00,SSE,165,6.0,11.0,99,-99.99,,,-99.99,,2015-01-26 18:32:00,
2015-01-26 12:43:00,17.0,17.0,-100.00,SSE,165,6.0,11.0,99,-99.99,,,-99.99,,2015-01-26 18:43:00,
2015-01-26 12:54:00,17.0,17.0,-100.00,SSE,165,6.0,11.0,99,-99.99,,,-99.99,,2015-01-26 18:54:00,
2015-01-26 13:03:00,20.0,20.0,-100.00,SE,140,5.0,13.0,99,-99.99,,,-99.99,,2015-01-26 19:03:00,
2015-01-26 13:23:00,20.0,20.0,-100.00,SE,140,5.0,13.0,99,-99.99,,,-99.99,,2015-01-26 19:23:00,
2015-01-26 13:33:00,20.0,20.0,-100.00,SE,140,5.0,13.0,99,-99.99,,,-99.99,,2015-01-26 19:33:00,
2015-01-26 13:44:00,20.0,20.0,-100.00,SE,140,5.0,13.0,99,-99.99,,,-99.99,,2015-01-26 19:44:00,
2015-01-26 13:54:00,20.0,20.0,-100.00,SE,140,5.0,13.0,99,-99.99,,,-99.99,,2015-01-26 19:54:00,
2015-01-26 14:24:00,21.0,21.0,-100.00,SSE,155,6.0,14.0,99,-99.99,,,-99.99,,2015-01-26 20:24:00,